Location: Helion Bumpstead
(52.0500°N, 0.4000°E)
Time: 22:01:09
(UTC+00:00)

Cosmos 1025 Rocket - Pass Details

Date: 15 November 2025
Orbit: 586 x 610 km, 82.5° (Epoch: 14 December)

Event Time Altitude Azimuth Distance (km) Brightness Sun altitude
Rises 05:39:18 0° 180° (S) 2,862 6.6 -15.1°
Reaches altitude 10° 05:41:31 10° 177° (S) 1,963 5.8 -14.8°
Maximum altitude 05:45:49 63° 97° (E) 686 3.5 -14.1°
Drops below altitude 10° 05:50:09 10° 16° (NNE) 1,978 5.7 -13.5°
Sets 05:52:24 0° 14° (NNE) 2,886 6.5 -13.1°
